Date String (YYYY-MM-DD hh:mm:ss) UTC,Instrument flags,absolute air pressure of the measurement (hPa),sample flow rate (lpm),inlet stack bypass flow (lpm),air temperature of the measurement (°C),ambient temperature measured by the external sensor (°C),aerosol sample conditioner tube jacket temperature (°C),OPC LED temperature (°C),internal box temperature (°C),relative humidity of the measurement (%),span deviation,mass concentration of particles derived from Lorenz-Mie calculation of OPC scattering (μg/m³),mass concentration of particles derived from Lorenz-Mie calculation of OPC scattering (μg/m³),mass concentration of particles derived from Lorenz-Mie calculation of OPC scattering (μg/m³)
DateTimeUTC,F1_M11,P_M11,Q1_M11,Q2_M11,T1_M11,T2_M11,T3_M11,T4_M11,T5_M11,U1_M11,ZSPAN_M11,X0_M11,X2_M11,X1_M11
2024-03-09 05:00:00,SystemResetWarning,0834.3,4.99,000.00,018.9,019.0,000.0,027.3,020.9,17.6,0000.0,0007.41,0005.52,0005.38
2024-03-09 05:01:00,SystemResetWarning,0834.2,5.00,000.00,018.8,018.6,000.0,027.3,020.6,17.6,0000.0,0007.41,0005.52,0005.38
2024-03-09 05:02:00,SystemResetWarning,0834.2,5.00,000.00,018.8,018.2,000.0,027.2,020.4,17.6,0000.0,0007.45,0005.53,0005.39
2024-03-09 05:03:00,SystemResetWarning,0834.2,5.01,000.00,018.7,017.8,000.0,027.2,020.2,17.7,0000.0,0008.24,0005.52,0005.39
2024-03-09 05:04:00,SystemResetWarning,0834.2,5.01,000.00,018.5,017.5,000.0,027.2,020.0,17.8,0000.0,0008.21,0005.50,0005.38
2024-03-09 05:05:00,SystemResetWarning,0834.2,5.00,000.00,018.5,017.3,000.0,027.2,020.0,17.9,0000.0,0008.18,0005.49,0005.38
2024-03-09 05:06:00,SystemResetWarning,0834.2,4.99,000.00,018.4,017.1,000.0,027.2,020.0,17.9,0000.0,0008.17,0005.48,0005.37
2024-03-09 05:07:00,SystemResetWarning,0834.2,4.99,000.00,018.4,017.0,000.0,027.2,020.0,18.0,0000.0,0008.16,0005.47,0005.36
2024-03-09 05:08:00,SystemResetWarning,0834.2,5.02,000.00,018.4,017.1,000.0,027.3,020.1,18.0,0000.0,0008.22,0005.47,0005.35
2024-03-09 05:09:00,SystemResetWarning,0834.2,5.01,000.00,018.5,018.1,000.0,027.3,020.6,17.9,0000.0,0008.17,0005.45,0005.33
2024-03-09 05:10:00,SystemResetWarning,0834.3,4.99,000.00,018.8,019.1,000.0,027.4,021.1,17.7,0000.0,0008.81,0005.44,0005.32
2024-03-09 05:11:00,SystemResetWarning,0834.2,4.99,000.00,018.9,019.3,000.0,027.4,021.1,17.6,0000.0,0008.94,0005.43,0005.30
2024-03-09 05:12:00,SystemResetWarning,0834.1,4.99,000.00,018.9,018.9,000.0,027.3,020.8,17.7,0000.0,0008.92,0005.41,0005.29
2024-03-09 05:13:00,SystemResetWarning,0834.1,5.00,000.00,018.8,018.5,000.0,027.3,020.5,17.8,0000.0,0008.82,0005.39,0005.29
2024-03-09 05:14:00,SystemResetWarning,0834.1,5.00,000.00,018.7,018.2,000.0,027.3,020.3,17.9,0000.0,0008.01,0005.38,0005.29
2024-03-09 05:15:00,SystemResetWarning,0834.1,5.01,000.00,018.6,017.8,000.0,027.2,020.1,18.0,0000.0,0008.04,0005.40,0005.31
2024-03-09 05:16:00,SystemResetWarning,0834.1,5.00,000.00,018.5,017.5,000.0,027.2,020.0,18.1,0000.0,0008.08,0005.41,0005.30
2024-03-09 05:17:00,SystemResetWarning,0834.1,5.00,000.00,018.5,017.3,000.0,027.2,020.0,18.2,0000.0,0008.09,0005.41,0005.31
2024-03-09 05:18:00,SystemResetWarning,0834.1,5.00,000.00,018.4,017.1,000.0,027.2,020.0,18.3,0000.0,0008.10,0005.43,0005.32
2024-03-09 05:19:00,SystemResetWarning,0834.1,5.01,000.00,018.4,017.0,000.0,027.2,020.0,18.3,0000.0,0008.10,0005.44,0005.33
2024-03-09 05:20:00,SystemResetWarning,0834.1,5.02,000.00,018.4,017.4,000.0,027.3,020.2,18.4,0000.0,0008.14,0005.46,0005.34
2024-03-09 05:21:00,SystemResetWarning,0834.2,5.00,000.00,018.6,018.4,000.0,027.4,020.7,18.2,0000.0,0007.80,0005.46,0005.36
2024-03-09 05:22:00,SystemResetWarning,0834.2,4.99,000.00,018.8,019.2,000.0,027.4,021.2,18.0,0000.0,0007.41,0005.48,0005.37
2024-03-09 05:23:00,SystemResetWarning,0834.2,4.99,000.00,018.9,019.2,000.0,027.4,021.1,17.8,0000.0,0007.44,0005.50,0005.39
2024-03-09 05:24:00,SystemResetWarning,0834.1,4.99,000.00,018.9,018.7,000.0,027.3,020.8,17.9,0000.0,0007.51,0005.53,0005.40
2024-03-09 05:25:00,SystemResetWarning,0834.1,5.01,000.00,018.8,018.3,000.0,027.3,020.5,17.9,0000.0,0007.55,0005.54,0005.39
2024-03-09 05:26:00,SystemResetWarning,0834.1,5.01,000.00,018.7,018.0,000.0,027.3,020.3,18.0,0000.0,0007.58,0005.55,0005.39
2024-03-09 05:27:00,SystemResetWarning,0834.1,5.00,000.00,018.6,017.7,000.0,027.2,020.1,18.0,0000.0,0007.61,0005.57,0005.41
2024-03-09 05:28:00,SystemResetWarning,0834.1,5.00,000.00,018.5,017.4,000.0,027.2,020.0,18.1,0000.0,0007.63,0005.59,0005.43
2024-03-09 05:29:00,SystemResetWarning,0834.1,5.00,000.00,018.5,017.2,000.0,027.2,020.0,18.2,0000.0,0007.68,0005.62,0005.45
2024-03-09 05:30:00,SystemResetWarning,0834.1,5.00,000.00,018.4,017.0,000.0,027.3,020.0,18.3,0000.0,0007.73,0005.66,0005.47
2024-03-09 05:31:00,SystemResetWarning,0834.1,5.01,000.00,018.4,016.9,000.0,027.3,020.0,18.4,0000.0,0007.72,0005.68,0005.52
2024-03-09 05:32:00,SystemResetWarning,0834.1,5.01,000.00,018.4,017.6,000.0,027.3,020.3,18.3,0000.0,0007.75,0005.72,0005.55
2024-03-09 05:33:00,SystemResetWarning,0834.1,4.98,000.00,018.7,018.7,000.0,027.4,020.9,18.1,0000.0,0007.81,0005.76,0005.58
2024-03-09 05:34:00,SystemResetWarning,0834.1,4.99,000.00,018.9,019.3,000.0,027.4,021.2,17.8,0000.0,0007.87,0005.80,0005.61
2024-03-09 05:35:00,SystemResetWarning,0834.1,5.00,000.00,018.9,019.1,000.0,027.4,021.0,17.7,0000.0,0007.87,0005.82,0005.63
2024-03-09 05:36:00,SystemResetWarning,0834.0,5.00,000.00,018.9,018.7,000.0,027.3,020.7,17.7,0000.0,0007.88,0005.84,0005.66
2024-03-09 05:37:00,SystemResetWarning,0834.0,5.01,000.00,018.8,018.3,000.0,027.3,020.4,17.7,0000.0,0007.88,0005.85,0005.69
2024-03-09 05:38:00,SystemResetWarning,0834.0,5.01,000.00,018.7,017.9,000.0,027.3,020.2,17.8,0000.0,0007.90,0005.88,0005.72
2024-03-09 05:39:00,SystemResetWarning,0834.0,4.99,000.00,018.6,017.6,000.0,027.2,020.0,17.9,0000.0,0007.92,0005.91,0005.75
2024-03-09 05:40:00,SystemResetWarning,0834.0,5.00,000.00,018.5,017.3,000.0,027.2,020.0,17.9,0000.0,0007.89,0005.91,0005.77
2024-03-09 05:41:00,SystemResetWarning,0834.0,5.00,000.00,018.4,017.1,000.0,027.3,020.0,18.0,0000.0,0007.85,0005.90,0005.77
2024-03-09 05:42:00,SystemResetWarning,0834.0,5.02,000.00,018.4,016.9,000.0,027.3,020.0,18.1,0000.0,0007.88,0005.91,0005.76
2024-03-09 05:43:00,SystemResetWarning,0834.0,5.00,000.00,018.4,017.0,000.0,027.3,020.1,18.2,0000.0,0007.85,0005.88,0005.74
2024-03-09 05:44:00,SystemResetWarning,0834.0,5.01,000.00,018.5,017.9,000.0,027.4,020.5,18.1,0000.0,0007.86,0005.88,0005.73
2024-03-09 05:45:00,SystemResetWarning,0834.0,4.99,000.00,018.7,018.9,000.0,027.4,021.0,17.9,0000.0,0007.86,0005.88,0005.72
2024-03-09 05:46:00,SystemResetWarning,0834.0,4.99,000.00,018.9,019.3,000.0,027.4,021.2,17.7,0000.0,0007.88,0005.87,0005.72
2024-03-09 05:47:00,SystemResetWarning,0834.0,4.99,000.00,018.9,018.9,000.0,027.3,020.9,17.6,0000.0,0007.86,0005.85,0005.71
2024-03-09 05:48:00,SystemResetWarning,0833.9,5.01,000.00,018.8,018.5,000.0,027.3,020.6,17.7,0000.0,0007.84,0005.84,0005.70
2024-03-09 05:49:00,SystemResetWarning,0833.9,5.00,000.00,018.7,018.0,000.0,027.3,020.3,17.7,0000.0,0007.85,0005.83,0005.69
2024-03-09 05:50:00,SystemResetWarning,0833.9,5.00,000.00,018.6,017.7,000.0,027.2,020.1,17.8,0000.0,0008.26,0005.81,0005.67
2024-03-09 05:51:00,SystemResetWarning,0833.9,5.01,000.00,018.5,017.4,000.0,027.2,020.0,18.0,0000.0,0008.33,0005.78,0005.65
2024-03-09 05:52:00,SystemResetWarning,0834.0,5.00,000.00,018.5,017.2,000.0,027.3,020.0,18.0,0000.0,0008.30,0005.75,0005.62
2024-03-09 05:53:00,SystemResetWarning,0833.9,4.99,000.00,018.4,017.0,000.0,027.3,020.0,18.1,0000.0,0008.28,0005.72,0005.59
2024-03-09 05:54:00,SystemResetWarning,0834.0,5.00,000.00,018.4,016.9,000.0,027.3,020.0,18.2,0000.0,0008.30,0005.69,0005.57
2024-03-09 05:55:00,SystemResetWarning,0833.9,5.01,000.00,018.5,017.7,000.0,027.3,020.3,18.2,0000.0,0008.64,0005.65,0005.54
2024-03-09 05:56:00,SystemResetWarning,0834.0,4.99,000.00,018.7,018.7,000.0,027.4,020.9,17.9,0000.0,0008.56,0005.61,0005.51
2024-03-09 05:57:00,SystemResetWarning,0833.9,5.01,000.00,018.9,019.2,000.0,027.4,021.1,17.6,0000.0,0008.48,0005.58,0005.49
2024-03-09 05:58:00,SystemResetWarning,0833.9,4.99,000.00,018.9,018.9,000.0,027.3,020.9,17.6,0000.0,0008.44,0005.55,0005.46
2024-03-09 05:59:00,SystemResetWarning,0833.9,5.00,000.00,018.8,018.5,000.0,027.3,020.5,17.6,0000.0,0008.42,0005.52,0005.43
